Temp
22 20 19 20 21 22 23 24 24 25 26 27 27 23 24 24 24 22 22 22 22 22 23 23 23 23 22 22 22 21 21 21 21 20 20 19 19 19 20 20 20 20 20 20
20 20 21 22 21 23 23 23 23 25 26 25 25 23 24 24 24 24 23 23 23 22 22 22 23 23 23 23 22 21 22 22 21 21 20 20 20 20 20 20 20 20 20 20
20 21 22 22 22 23 22 22 23 24 27 26 24 24 23 24 24 24 24 24 24 24 23 24 23 24 24 23 23 23 23 22 22 21 20 20 20 20 20 20 20 20 19 20
20 22 23 22 22 23 20 24 25 25 24 23 24 21 23 23 23 24 24 24 23 24 24 24 24 25 24 24 24 23 23 23 22 22 21 21 20 20 20 20 20 20 20 20
21 22 22 22 24 23 23 25 24 25 24 24 25 22 22 25 23 24 24 24 24 24 24 24 25 25 25 25 25 24 24 23 23 22 22 21 21 20 20 21 20 20 20 20
23 24 24 24 24 24 25 25 23 23 20 21 24 23 25 21 25 26 25 25 25 24 24 25 25 25 25 25 24 24 24 24 23 23 22 22 21 21 20 21 20 21 20 20
22 23 24 24 22 23 23 20 19 20 19 22 22 21 26 24 25 26 27 25 25 25 25 25 25 24 24 24 25 25 24 24 24 23 23 22 22 21 21 21 21 21 20 20
20 21 23 23 23 22 21 22 16 18 18 22 21 21 26 27 28 27 28 27 26 26 25 25 25 25 25 25 25 25 25 25 24 24 23 22 22 22 21 21 21 21 21 21
19 20 23 25 25 25 21 22 22 20 20 19 20 22 24 26 25 27 26 27 27 26 26 26 26 26 26 26 26 26 26 25 25 24 24 23 23 22 22 22 21 21 21 20
21 21 22 24 25 24 24 21 22 15 21 22 21 22 23 24 26 24 24 26 27 27 27 27 26 27 27 26 26 26 26 26 26 25 25 24 24 23 22 22 22 21 21 20
20 20 23 23 22 24 22 22 21 21 18 23 20 23 22 24 24 25 25 27 28 28 28 28 27 27 28 27 26 27 26 26 25 26 25 24 24 23 22 22 22 21 21 21
16 16 21 23 23 25 25 24 22 21 20 18 24 23 26 27 26 24 26 29 31 29 29 28 28 28 27 26 25 27 27 26 26 26 25 25 25 24 23 23 22 22 21 21
12 13 18 20 22 22 22 22 24 23 19 24 20 22 24 25 25 26 26 29 28 29 29 29 29 28 27 26 26 27 27 28 27 26 26 25 25 25 24 23 23 23 22 21
11 10 15 19 21 22 21 23 23 23 22 24 25 24 26 25 24 24 26 29 29 30 29 29 29 28 28 27 28 27 28 27 27 26 26 26 25 25 25 24 23 23 23 22
9 9 13 15 17 19 21 24 25 22 24 24 25 23 24 23 23 25 31 29 27 27 29 29 31 29 29 29 28 27 26 26 27 26 26 27 26 26 26 25 24 23 23 23
8 9 11 14 18 19 21 23 25 26 25 24 23 22 22 24 26 25 29 29 28 28 28 29 30 29 31 31 31 31 29 28 26 27 28 27 26 26 26 25 24 23 23 23
8 8 10 12 15 16 20 23 24 25 25 25 23 23 23 23 22 23 28 29 29 31 31 30 29 31 32 31 31 30 30 31 28 29 28 27 27 27 26 25 25 24 24 23
7 8 10 11 13 17 22 25 26 25 24 23 24 22 23 24 28 31 32 33 31 33 31 30 32 31 33 32 32 32 29 28 30 30 29 27 26 26 26 25 25 25 24 23
9 9 10 12 13 16 22 25 24 23 23 23 24 24 23 26 26 25 31 33 33 33 34 32 32 33 33 33 33 32 29 28 28 28 28 28 28 27 25 25 27 26 24 23
10 10 13 12 14 16 17 15 16 18 24 23 23 23 23 22 21 25 30 31 32 33 33 33 33 33 32 34 34 31 30 28 28 28 30 30 29 26 26 28 27 26 25 24
9 10 10 12 14 15 13 14 16 20 22 18 23 25 22 21 25 33 32 31 32 33 33 32 33 33 34 33 33 32 31 32 32 30 30 28 27 26 27 26 24 24 24 22
11 10 10 11 14 14 13 14 13 12 11 12 23 25 24 29 31 30 30 30 32 33 33 31 32 33 33 32 32 32 32 33 33 32 30 29 28 26 24 23 22 22 21 20
10 11 11 14 13 12 13 12 11 11 11 11 20 27 27 26 27 29 29 29 30 31 32 33 32 32 32 31 31 31 32 32 32 32 31 31 32 29 29 26 25 23 23 20
10 10 12 13 14 13 13 14 13 12 12 16 21 25 26 26 25 26 27 28 28 28 28 28 28 28 28 29 29 29 29 31 31 32 32 29 28 26 23 22 21 20 19 19
6 9 12 14 12 14 14 14 11 11 12 17 19 19 22 24 24 24 24 25 26 27 27 28 28 27 27 27 27 27 27 27 27 27 28 27 25 22 20 19 19 19 19 19
9 10 11 12 12 12 11 13 11 10 12 16 19 18 18 19 19 20 21 21 22 23 23 24 24 25 25 25 25 25 26 25 24 23 22 21 21 20 18 19 18 19 18 17
Height
1464 1472 1472 1470 1471 1472 1477 1480 1483 1474 1464 1467 1469 1476 1475 1477 1486 1490 1493 1497 1500 1502 1501 1506 1511 1516 1520 1525 1529 1532 1536 1539 1543 1545 1549 1552 1554 1558 1560 1563 1565 1566 1568 1569
1464 1465 1461 1463 1467 1469 1473 1481 1483 1473 1464 1470 1470 1477 1472 1475 1473 1477 1484 1490 1492 1496 1503 1504 1507 1511 1514 1518 1522 1527 1530 1534 1537 1541 1544 1548 1551 1554 1557 1560 1562 1564 1565 1567
1456 1454 1455 1460 1464 1469 1470 1477 1478 1477 1465 1466 1472 1482 1481 1478 1481 1484 1486 1486 1489 1488 1491 1496 1501 1504 1507 1510 1513 1518 1522 1527 1531 1535 1540 1544 1547 1550 1552 1554 1557 1560 1562 1564
1451 1445 1451 1458 1461 1462 1478 1460 1466 1470 1479 1495 1469 1505 1480 1474 1476 1477 1479 1481 1482 1485 1486 1490 1493 1497 1500 1502 1508 1512 1517 1522 1526 1531 1535 1538 1541 1544 1547 1550 1554 1556 1558 1561
1440 1439 1446 1452 1449 1455 1460 1457 1465 1467 1475 1478 1474 1491 1473 1465 1473 1468 1467 1468 1472 1476 1480 1482 1484 1486 1489 1496 1500 1506 1511 1516 1520 1524 1529 1533 1536 1541 1545 1547 1549 1552 1555 1557
1429 1428 1433 1436 1441 1446 1451 1457 1466 1469 1482 1496 1472 1480 1466 1468 1454 1454 1456 1457 1459 1465 1470 1473 1476 1480 1485 1492 1496 1500 1504 1509 1513 1518 1522 1526 1531 1536 1540 1542 1545 1547 1550 1553
1431 1430 1426 1427 1444 1444 1451 1473 1500 1503 1501 1481 1461 1478 1451 1440 1438 1437 1440 1441 1446 1451 1458 1463 1469 1473 1477 1481 1486 1492 1496 1500 1505 1510 1515 1520 1525 1530 1534 1538 1540 1543 1545 1547
1441 1448 1425 1419 1426 1440 1450 1455 1491 1506 1501 1478 1462 1464 1428 1422 1425 1427 1428 1428 1433 1440 1446 1452 1457 1462 1466 1472 1477 1482 1486 1492 1498 1504 1509 1515 1520 1524 1528 1532 1535 1538 1541 1543
1435 1434 1407 1407 1412 1421 1440 1450 1443 1469 1471 1481 1462 1439 1422 1417 1419 1420 1423 1427 1428 1429 1436 1441 1446 1451 1458 1462 1467 1472 1477 1484 1490 1496 1502 1507 1513 1517 1521 1524 1528 1532 1536 1539
1410 1428 1404 1400 1405 1410 1417 1428 1454 1476 1480 1478 1460 1445 1439 1422 1417 1415 1416 1418 1419 1423 1426 1431 1437 1442 1449 1454 1459 1465 1470 1474 1479 1487 1493 1499 1505 1511 1516 1520 1521 1525 1529 1533
1407 1413 1406 1399 1407 1410 1423 1425 1430 1436 1454 1454 1471 1435 1412 1410 1405 1407 1407 1406 1407 1411 1413 1419 1427 1434 1439 1445 1450 1455 1463 1468 1475 1479 1486 1493 1498 1504 1510 1513 1515 1518 1523 1526
1416 1416 1410 1402 1390 1389 1397 1405 1416 1438 1447 1445 1428 1430 1391 1390 1396 1397 1396 1398 1398 1401 1406 1414 1420 1425 1433 1437 1443 1445 1452 1459 1465 1472 1478 1484 1490 1496 1501 1505 1508 1512 1515 1519
1428 1425 1421 1413 1401 1394 1399 1399 1397 1405 1422 1413 1442 1430 1391 1392 1392 1394 1394 1393 1395 1396 1401 1405 1413 1419 1424 1427 1432 1438 1443 1448 1455 1462 1469 1477 1482 1486 1492 1497 1501 1504 1509 1512
1427 1430 1422 1409 1402 1392 1401 1391 1390 1398 1414 1406 1397 1407 1393 1389 1388 1386 1387 1387 1387 1388 1391 1397 1405 1410 1416 1420 1424 1428 1433 1440 1447 1453 1458 1464 1471 1477 1484 1489 1494 1496 1500 1504
1434 1439 1422 1411 1405 1394 1390 1380 1379 1388 1381 1395 1391 1401 1391 1386 1384 1381 1380 1382 1386 1388 1390 1392 1396 1400 1406 1412 1416 1423 1427 1433 1438 1444 1449 1451 1459 1469 1476 1480 1484 1489 1492 1495
1435 1434 1425 1413 1395 1389 1385 1374 1361 1358 1370 1379 1386 1390 1374 1372 1373 1374 1375 1376 1378 1381 1384 1387 1389 1392 1398 1403 1405 1410 1416 1423 1430 1434 1437 1443 1449 1457 1463 1469 1474 1479 1483 1487
1439 1436 1429 1421 1399 1395 1387 1341 1360 1359 1358 1364 1382 1376 1367 1368 1369 1367 1366 1368 1369 1372 1377 1381 1385 1388 1391 1394 1398 1402 1408 1412 1417 1423 1428 1434 1440 1446 1452 1459 1465 1468 1471 1476
1432 1431 1430 1423 1405 1404 1337 1339 1339 1351 1352 1353 1354 1359 1358 1356 1353 1354 1356 1358 1360 1364 1367 1370 1377 1381 1385 1389 1391 1395 1400 1406 1408 1412 1419 1424 1431 1437 1442 1448 1453 1458 1462 1466
1419 1425 1426 1420 1411 1376 1349 1338 1341 1347 1353 1346 1346 1347 1348 1348 1349 1348 1350 1352 1355 1358 1361 1363 1368 1374 1377 1381 1385 1387 1392 1396 1402 1405 1411 1415 1420 1426 1431 1434 1439 1445 1452 1456
1401 1409 1409 1409 1403 1392 1361 1354 1347 1341 1345 1326 1332 1336 1339 1344 1361 1347 1343 1347 1350 1353 1356 1359 1363 1368 1371 1374 1376 1381 1385 1389 1391 1396 1401 1406 1410 1416 1419 1422 1428 1434 1439 1444
1403 1410 1413 1406 1397 1375 1361 1350 1341 1355 1340 1334 1323 1325 1331 1338 1336 1335 1335 1341 1345 1348 1351 1356 1360 1362 1366 1370 1371 1374 1377 1379 1384 1388 1394 1399 1403 1406 1410 1416 1421 1424 1429 1435
1387 1391 1405 1406 1390 1385 1356 1350 1367 1361 1343 1337 1321 1315 1317 1321 1327 1330 1332 1335 1340 1343 1347 1352 1355 1357 1360 1365 1367 1370 1371 1376 1380 1384 1389 1392 1396 1400 1404 1408 1413 1418 1424 1427
1386 1373 1380 1375 1372 1356 1356 1361 1357 1353 1345 1329 1324 1309 1313 1319 1323 1326 1331 1335 1338 1342 1345 1348 1352 1356 1359 1362 1365 1366 1369 1372 1375 1378 1381 1383 1387 1390 1390 1394 1397 1400 1406 1418
1375 1369 1368 1368 1356 1356 1348 1350 1351 1348 1340 1331 1322 1312 1315 1318 1324 1324 1330 1334 1339 1343 1346 1348 1351 1354 1357 1360 1362 1365 1367 1368 1370 1371 1374 1377 1379 1382 1387 1390 1393 1395 1398 1406
1387 1372 1359 1359 1353 1349 1343 1354 1357 1350 1343 1328 1323 1319 1319 1323 1328 1331 1334 1338 1342 1344 1347 1348 1350 1352 1354 1356 1358 1361 1363 1365 1367 1369 1371 1373 1375 1378 1382 1388 1395 1399 1403 1409
1370 1359 1359 1352 1345 1345 1349 1359 1363 1356 1348 1332 1328 1327 1326 1329 1335 1340 1341 1344 1347 1348 1350 1351 1353 1354 1354 1355 1355 1356 1358 1360 1363 1366 1369 1372 1374 1376 1381 1385 1390 1394 1399 1404
Wind_Speed
10 7 12 9 7 5 6 3 4 4 8 1 13 6 21 31 28 28 32 34 36 39 49 44 41 38 39 38 37 34 35 33 31 32 30 30 28 27 27 23 19 15 13 14
2 14 8 8 8 8 6 6 6 5 6 9 10 9 19 22 32 37 37 37 40 37 37 46 47 44 44 41 39 39 38 34 33 33 31 28 27 31 28 26 25 19 16 13
11 6 11 9 6 9 6 10 5 7 0 2 5 3 12 18 12 24 30 37 40 42 41 43 45 47 46 47 44 42 40 37 33 32 32 29 25 24 28 31 28 23 20 15
6 9 10 7 10 10 10 5 6 8 5 5 6 5 14 17 18 17 27 33 36 39 45 47 48 47 47 49 47 43 41 38 35 36 35 33 31 29 24 27 27 24 22 22
10 14 17 13 14 8 9 6 7 6 5 1 5 2 7 18 16 21 25 39 40 42 46 50 54 53 53 50 49 47 44 42 38 36 37 35 33 30 23 24 24 23 23 19
15 9 14 17 9 13 5 3 2 0 3 7 12 8 9 10 26 23 26 38 46 46 48 52 56 54 55 52 52 50 48 46 43 39 38 38 35 31 26 27 28 25 25 23
5 18 4 7 9 6 6 7 4 3 4 11 10 7 15 9 15 21 24 40 46 49 50 52 51 50 53 56 56 55 53 51 48 44 42 40 37 32 29 29 30 28 24 25
9 5 17 7 10 11 10 14 6 8 4 7 5 10 13 16 18 30 31 42 45 46 49 52 56 57 58 59 59 59 58 56 53 48 45 43 38 34 29 30 33 32 28 25
9 9 4 12 7 17 8 12 12 3 2 3 5 8 6 9 11 14 20 23 34 44 47 50 56 59 59 60 61 61 62 59 56 51 48 45 41 38 34 32 31 33 32 26
7 2 8 10 11 10 14 8 4 2 11 14 5 7 6 10 17 12 10 23 34 40 45 51 53 57 58 59 60 60 61 61 56 55 50 47 43 41 35 32 34 37 35 32
1 4 4 7 8 19 3 9 4 7 6 10 2 10 9 9 11 13 15 30 38 41 47 53 52 52 57 58 59 60 60 60 59 57 53 50 46 43 40 35 37 36 35 33
7 2 15 18 5 14 19 14 12 5 10 6 11 10 3 17 14 9 15 28 41 45 45 44 51 50 51 52 54 59 59 59 59 58 57 52 48 45 44 39 39 39 38 37
8 4 2 6 3 3 8 10 16 13 1 21 7 6 8 7 7 15 18 25 27 34 38 46 48 45 48 51 55 59 58 58 57 58 57 57 53 50 47 45 40 42 42 42
4 3 5 11 4 5 8 10 15 16 11 14 20 4 4 7 11 9 15 22 25 34 43 46 46 41 46 50 54 55 58 57 55 57 55 56 58 52 48 48 46 43 44 45
4 4 4 7 11 15 15 15 25 19 24 16 14 14 13 10 10 11 18 18 19 29 38 45 50 50 50 51 50 51 52 54 54 54 56 55 54 54 50 50 50 47 45 47
5 4 5 6 10 13 16 19 24 29 23 14 7 8 9 17 25 16 25 22 23 32 39 48 55 52 50 51 53 54 51 52 52 50 51 53 53 53 54 52 51 51 49 47
2 2 5 5 6 10 12 31 20 12 13 18 14 8 8 8 10 15 30 32 31 30 34 45 44 44 45 47 53 55 54 50 51 50 50 52 54 54 53 55 53 53 53 51
5 4 2 5 5 7 12 10 19 17 9 7 5 11 11 14 28 36 34 24 33 29 28 39 48 48 38 47 50 51 52 52 53 54 52 51 54 55 54 53 55 55 55 54
18 6 3 3 3 9 12 3 6 12 9 7 12 10 9 25 12 9 33 29 27 24 21 24 39 37 41 43 45 47 47 46 49 54 53 53 56 56 55 55 54 55 56 55
22 19 7 3 4 6 2 15 25 13 18 15 12 11 10 9 4 12 30 32 30 27 26 25 33 40 38 33 28 34 38 42 47 51 51 53 55 56 56 56 56 54 54 55
9 9 13 10 5 8 12 21 15 8 7 15 18 20 13 8 16 24 21 24 26 24 22 34 24 30 29 25 27 27 32 34 35 42 48 52 53 54 52 52 54 55 53 51
8 10 7 7 7 8 14 9 7 10 34 28 17 21 29 33 28 20 18 23 28 26 24 26 26 23 20 31 36 36 40 32 31 33 41 48 48 48 48 48 49 52 51 47
5 5 8 8 6 3 2 4 18 23 29 29 20 14 20 24 25 27 21 17 18 16 21 26 22 25 23 31 35 37 34 30 33 36 41 45 41 45 47 50 52 52 53 49
6 9 6 6 5 5 16 27 31 34 32 14 4 17 24 25 22 25 21 17 13 10 8 7 6 5 9 15 22 28 35 37 41 46 48 49 49 49 45 47 49 48 47 43
10 6 13 15 4 4 11 22 27 36 18 17 13 17 21 23 21 19 19 16 13 10 7 5 4 5 6 8 10 11 15 23 30 35 42 44 44 40 38 39 35 35 35 38
10 7 8 9 7 6 6 13 20 23 11 22 24 23 23 23 21 19 19 16 13 11 8 5 4 6 9 11 13 15 16 16 16 19 25 29 35 35 35 35 19 30 28 26
Wind_Direction
192 189 209 193 184 179 156 186 182 282 292 153 199 161 179 182 188 193 190 195 201 210 209 210 212 212 216 217 215 212 210 211 213 214 214 215 219 223 227 230 234 236 228 235
165 219 204 194 194 218 206 206 245 259 248 190 217 203 187 181 196 195 191 198 205 208 214 215 215 214 216 217 214 214 214 218 218 219 220 224 229 233 235 237 234 231 231 238
203 224 184 188 190 201 213 208 174 209 117 52 120 163 189 208 216 205 208 204 206 203 201 212 213 214 216 217 215 215 216 218 217 220 219 220 224 230 231 233 226 229 230 233
214 218 187 179 210 193 235 169 158 215 141 213 171 235 190 195 208 207 211 213 213 212 211 211 214 215 218 219 218 219 220 220 221 218 217 219 225 224 226 224 225 225 230 241
216 186 197 211 209 174 241 171 187 210 208 177 236 183 232 183 206 213 206 212 214 214 212 212 215 218 220 220 220 221 222 223 223 223 222 223 229 230 231 218 210 217 227 231
214 201 198 212 193 205 171 313 58 344 154 235 229 198 233 188 210 215 208 214 214 212 216 216 218 221 223 223 224 223 224 225 226 226 225 226 230 231 223 217 217 222 226 224
178 223 216 154 186 185 140 123 257 264 212 233 214 192 229 209 204 209 208 212 212 210 212 215 218 216 221 222 224 225 225 227 227 227 227 228 230 233 228 222 222 222 219 224
183 214 210 199 189 194 195 188 163 191 207 227 160 230 236 218 236 219 214 212 212 207 209 213 218 220 220 225 225 225 227 227 228 228 228 230 232 234 233 230 225 220 220 227
183 234 228 196 176 175 197 195 195 156 208 9 221 278 314 217 244 235 222 218 212 205 207 213 219 221 221 224 226 227 227 228 229 229 229 229 231 232 231 228 228 224 224 228
204 226 212 203 178 218 195 171 161 340 217 240 251 243 213 191 220 228 214 210 217 212 207 215 218 222 224 227 231 231 232 230 230 230 230 231 232 232 233 229 228 225 224 228
83 162 251 138 190 198 167 206 199 175 169 223 219 255 181 212 214 215 214 213 217 209 209 217 219 220 229 229 230 232 232 233 232 231 230 231 232 233 232 231 228 228 224 224
336 256 237 228 219 193 213 215 195 190 227 240 230 233 252 200 214 207 240 232 233 218 215 215 221 220 223 222 222 231 232 234 235 234 231 231 233 234 232 232 229 227 225 225
340 299 224 323 335 246 209 201 207 211 146 230 203 246 237 200 207 211 217 248 241 231 217 215 219 218 219 221 226 233 234 235 235 234 233 231 232 233 232 232 230 228 227 229
2 284 247 247 274 183 208 214 212 199 222 220 233 209 210 211 217 219 227 236 227 216 215 214 218 216 219 225 229 231 235 235 234 233 233 234 232 233 233 233 231 231 229 230
64 283 283 286 295 287 263 226 217 212 219 204 226 206 229 202 204 221 231 240 222 208 210 213 221 222 222 226 228 231 234 233 233 232 234 236 236 233 234 234 233 232 232 233
2 279 329 284 264 255 261 258 234 218 219 229 197 228 212 219 222 222 235 238 220 214 209 216 218 216 224 225 231 233 233 234 234 233 239 238 238 234 233 234 234 235 234 233
293 270 339 269 305 319 256 232 243 246 207 204 208 202 197 240 203 221 235 236 233 225 226 217 218 213 225 228 230 234 233 235 236 239 241 240 239 238 235 233 234 236 235 235
209 172 257 268 313 220 277 196 222 231 230 202 150 189 200 211 230 232 229 245 232 235 243 234 223 225 232 230 232 235 233 230 236 239 239 240 239 240 238 234 235 236 237 238
204 184 244 236 243 290 306 358 234 186 229 208 190 201 208 220 231 250 230 220 228 242 254 244 225 231 233 232 234 233 230 233 236 238 239 242 242 240 237 237 237 237 238 239
193 205 202 185 231 247 100 329 322 313 223 202 185 199 198 135 198 247 241 238 236 242 242 231 231 230 226 228 233 235 236 236 237 239 242 245 244 239 239 242 241 239 239 240
174 194 217 245 253 280 350 333 322 165 239 307 192 203 182 176 217 243 257 224 218 216 225 211 214 214 219 217 212 219 225 236 245 244 242 241 243 243 245 244 242 240 239 237
194 164 183 231 220 254 8 11 5 307 301 296 250 196 189 206 223 225 200 203 209 213 216 212 214 216 220 226 219 222 227 231 243 246 244 242 245 246 245 244 243 242 240 233
235 185 177 203 229 151 128 280 321 324 298 290 289 171 196 194 173 172 173 168 177 194 217 224 225 217 217 210 220 228 232 227 232 239 246 245 243 243 245 242 240 235 235 230
282 196 182 256 222 233 39 358 346 334 321 333 266 133 152 150 155 150 152 146 144 139 124 105 126 164 208 226 232 238 239 237 235 243 242 240 241 237 237 237 235 231 220 213
263 270 216 224 272 264 33 358 345 326 337 77 90 106 128 137 134 129 120 112 102 86 62 45 12 341 329 317 309 296 274 261 260 257 250 246 241 235 225 219 220 217 216 216
231 238 211 218 184 123 72 2 335 323 11 86 95 87 91 103 97 102 94 89 87 81 70 55 13 336 322 311 311 309 308 305 293 272 250 239 237 224 212 208 180 206 200 186